Location: Wald
(31.7579°N, 86.6655°W)
Time: 12:15:41
(UTC+00:00)

CARTOSAT-1 - Pass Details

Date: 14 July 2020
Orbit: 617 x 618 km, 97.8° (Epoch: 09 August)

Event Time Altitude Azimuth Distance (km) Brightness Sun altitude
Exits shadow 03:38:10 53° 342° (NNW) 761 4.2 -27.7°
Drops below altitude 10° 03:41:30 10° 347° (NNW) 1,984 7.0 -28.1°
Sets 03:43:41 0° 348° (NNW) 2,893 8.0 -28.3°
